Regional Weather Roundup
Issued by NWS

Home | Current Version | Previous Version | Text Only | Print | Product List | Glossary Off
Versions: 1 2 3 4 5 6 7 8 9 10 11 12 13 14 15 16 17 18 19 20 21 22 23 24 25 26 27

000
ASUS45 KCYS 230110
RWRWY

WYOMING REGIONAL WEATHER ROUNDUP
NATIONAL WEATHER SERVICE CHEYENNE WY
700 PM MDT SAT APR 22 2017

NOTE:  "FAIR" INDICATES FEW OR NO CLOUDS BELOW 12,000 FEET
WITH NO SIGNIFICANT WEATHER AND/OR OBSTRUCTIONS TO VISIBILITY.

WYZ001-230200-
YELLOWSTONE NATIONAL PARK

CITY           SKY/WX    TMP DP  RH WIND       PRES   REMARKS
LK YELLOWSTONE   N/A     42  22  44 VRB5      30.12S
W YELLOWSTONE  NOT AVBL

$$
WYZ002>013-054>058-071-098>099-230200-
NORTHERN WYOMING

CITY           SKY/WX    TMP DP  RH WIND       PRES   REMARKS
JACKSON        SUNNY     52  25  35 S9        30.07F
CODY           FAIR      54  37  52 SE14G20   29.99F
GREYBULL       FAIR      56  36  47 SE17      30.00F
WORLAND        FAIR      57  37  47 E8        30.00F
SHERIDAN       FAIR      57  35  43 CALM      29.98F
BUFFALO        FAIR      56  36  47 W7        30.00F
GILLETTE       FAIR      56  36  47 S16       30.04F
HULETT         FAIR      57  34  41 SW15G22   30.06F
NEWCASTLE      FAIR      55  30  38 S7G17     30.09F

$$
WYZ014>020-022>026-101>103-230200-
CENTRAL WYOMING

CITY           SKY/WX    TMP DP  RH WIND       PRES   REMARKS
BIG PINEY      FAIR      51  17  26 S9        30.12F
PINEDALE       FAIR      50  18  27 S6        30.13F
DUBOIS         FAIR      48  19  32 W8        30.06F
LANDER         FAIR      55  29  36 SE7       29.99F
RIVERTON       FAIR      58  26  29 S9        30.01F
CASPER         FAIR      55  31  39 SW8       30.08F
DOUGLAS        FAIR      57  28  33 S12       30.10F

$$
WYZ021-027>030-104>119-230200-
SOUTHERN WYOMING

CITY           SKY/WX    TMP DP  RH WIND       PRES   REMARKS
EVANSTON       FAIR      53  19  26 SW13      30.09F
KEMMERER         N/A     50  19  29 CALM      30.12F
FORT BRIDGER   FAIR      54  25  33 CALM      30.12F
ROCK SPRINGS   FAIR      55  17  22 SE10      30.10F
DIXON            N/A     56  21  26 S5        30.15F
RAWLINS        FAIR      54  20  26 SW8       30.12F
SARATOGA       FAIR      52  21  30 CALM      30.14F
LARAMIE        FAIR      44  29  55 SE18      30.17F
CHEYENNE       FAIR      48  27  44 S16       30.20F
TORRINGTON     FAIR      58  28  32 S17       30.13F
PINE BLUFFS    FAIR      52  28  40 S9        30.21F

$$




USA.gov is the U.S. government's official web portal to all federal, state and local government web resources and services.